Time,TemperatureF,DewpointF,PressureIn,WindDirection,WindDirectionDegrees,WindSpeedMPH,WindSpeedGustMPH,Humidity,HourlyPrecipIn,Conditions,Clouds,dailyrainin,SoftwareType,DateUTC
2013-04-23 00:02:00,25.0,21.0,-100.00,NW,310,13.0,17.0,87,-99.99,,,-99.99,,2013-04-23 06:02:00,
2013-04-23 00:12:00,25.0,21.0,-100.00,NW,310,13.0,17.0,87,-99.99,,,-99.99,,2013-04-23 06:12:00,
2013-04-23 00:21:00,25.0,21.0,-100.00,NW,310,13.0,17.0,87,-99.99,,,-99.99,,2013-04-23 06:21:00,
2013-04-23 00:42:00,25.0,21.0,-100.00,WNW,300,14.0,17.0,84,-99.99,,,-99.99,,2013-04-23 06:42:00,
2013-04-23 00:52:00,25.0,20.0,-100.00,WNW,285,15.0,18.0,81,-99.99,,,-99.99,,2013-04-23 06:52:00,
2013-04-23 01:02:00,25.0,20.0,-100.00,WNW,285,16.0,17.0,81,-99.99,,,-99.99,,2013-04-23 07:02:00,
2013-04-23 01:11:00,25.0,20.0,-100.00,WNW,285,13.0,19.0,81,-99.99,,,-99.99,,2013-04-23 07:11:00,
2013-04-23 01:21:00,25.0,20.0,-100.00,WNW,285,13.0,19.0,81,-99.99,,,-99.99,,2013-04-23 07:21:00,
2013-04-23 01:32:00,25.0,20.0,-100.00,WNW,285,13.0,19.0,81,-99.99,,,-99.99,,2013-04-23 07:32:00,
2013-04-23 01:42:00,24.0,20.0,-100.00,WNW,285,12.0,17.0,81,-99.99,,,-99.99,,2013-04-23 07:42:00,
2013-04-23 01:52:00,24.0,20.0,-100.00,WNW,285,12.0,17.0,81,-99.99,,,-99.99,,2013-04-23 07:52:00,
2013-04-23 02:02:00,24.0,20.0,-100.00,WNW,285,12.0,17.0,81,-99.99,,,-99.99,,2013-04-23 08:02:00,
2013-04-23 02:11:00,24.0,17.0,-100.00,West,260,14.0,19.0,75,-99.99,,,-99.99,,2013-04-23 08:11:00,
2013-04-23 02:21:00,24.0,17.0,-100.00,West,260,14.0,19.0,75,-99.99,,,-99.99,,2013-04-23 08:21:00,
2013-04-23 02:32:00,24.0,17.0,-100.00,West,260,17.0,19.0,75,-99.99,,,-99.99,,2013-04-23 08:32:00,
2013-04-23 02:42:00,24.0,17.0,-100.00,West,260,17.0,19.0,75,-99.99,,,-99.99,,2013-04-23 08:42:00,
2013-04-23 02:52:00,23.0,17.0,-100.00,West,265,13.0,19.0,76,-99.99,,,-99.99,,2013-04-23 08:52:00,
2013-04-23 03:01:00,23.0,17.0,-100.00,West,265,15.0,19.0,76,-99.99,,,-99.99,,2013-04-23 09:01:00,
2013-04-23 03:11:00,23.0,17.0,-100.00,West,265,16.0,19.0,75,-99.99,,,-99.99,,2013-04-23 09:11:00,
2013-04-23 03:21:00,23.0,17.0,-100.00,West,265,16.0,21.0,75,-99.99,,,-99.99,,2013-04-23 09:21:00,
2013-04-23 03:33:00,23.0,17.0,-100.00,West,265,16.0,21.0,75,-99.99,,,-99.99,,2013-04-23 09:33:00,
2013-04-23 03:43:00,23.0,17.0,-100.00,West,270,13.0,19.0,77,-99.99,,,-99.99,,2013-04-23 09:43:00,
2013-04-23 03:52:00,23.0,17.0,-100.00,West,270,11.0,16.0,77,-99.99,,,-99.99,,2013-04-23 09:52:00,
2013-04-23 04:02:00,23.0,17.0,-100.00,West,270,11.0,16.0,77,-99.99,,,-99.99,,2013-04-23 10:02:00,
2013-04-23 04:13:00,23.0,17.0,-100.00,West,270,11.0,16.0,77,-99.99,,,-99.99,,2013-04-23 10:13:00,
2013-04-23 04:22:00,24.0,17.0,-100.00,West,265,15.0,19.0,75,-99.99,,,-99.99,,2013-04-23 10:22:00,
2013-04-23 04:33:00,24.0,17.0,-100.00,West,265,14.0,21.0,75,-99.99,,,-99.99,,2013-04-23 10:33:00,
2013-04-23 04:42:00,24.0,17.0,-100.00,West,265,14.0,21.0,75,-99.99,,,-99.99,,2013-04-23 10:42:00,
2013-04-23 04:52:00,24.0,17.0,-100.00,West,265,14.0,21.0,75,-99.99,,,-99.99,,2013-04-23 10:52:00,
2013-04-23 05:03:00,24.0,17.0,-100.00,West,260,12.0,21.0,74,-99.99,,,-99.99,,2013-04-23 11:03:00,
2013-04-23 05:12:00,24.0,17.0,-100.00,West,260,12.0,21.0,74,-99.99,,,-99.99,,2013-04-23 11:12:00,
2013-04-23 05:21:00,24.0,18.0,-100.00,West,260,13.0,19.0,75,-99.99,,,-99.99,,2013-04-23 11:21:00,
2013-04-23 05:32:00,24.0,17.0,-100.00,West,260,14.0,18.0,74,-99.99,,,-99.99,,2013-04-23 11:32:00,
2013-04-23 05:42:00,24.0,17.0,-100.00,West,260,14.0,18.0,74,-99.99,,,-99.99,,2013-04-23 11:42:00,
2013-04-23 05:52:00,24.0,17.0,-100.00,West,260,14.0,18.0,74,-99.99,,,-99.99,,2013-04-23 11:52:00,
2013-04-23 06:02:00,24.0,17.0,-100.00,WSW,255,11.0,15.0,73,-99.99,,,-99.99,,2013-04-23 12:02:00,
2013-04-23 06:12:00,24.0,17.0,-100.00,WSW,255,11.0,15.0,73,-99.99,,,-99.99,,2013-04-23 12:12:00,
2013-04-23 06:22:00,24.0,17.0,-100.00,WSW,255,11.0,15.0,73,-99.99,,,-99.99,,2013-04-23 12:22:00,
2013-04-23 06:32:00,24.0,17.0,-100.00,WSW,255,11.0,15.0,73,-99.99,,,-99.99,,2013-04-23 12:32:00,
2013-04-23 06:52:00,24.0,17.0,-100.00,WSW,255,11.0,14.0,73,-99.99,,,-99.99,,2013-04-23 12:52:00,
2013-04-23 07:01:00,24.0,17.0,-100.00,WSW,255,10.0,13.0,73,-99.99,,,-99.99,,2013-04-23 13:01:00,
2013-04-23 07:11:00,24.0,17.0,-100.00,WSW,255,10.0,13.0,73,-99.99,,,-99.99,,2013-04-23 13:11:00,
2013-04-23 07:21:00,24.0,17.0,-100.00,WSW,255,10.0,13.0,73,-99.99,,,-99.99,,2013-04-23 13:21:00,
2013-04-23 07:32:00,24.0,17.0,-100.00,WSW,255,10.0,13.0,73,-99.99,,,-99.99,,2013-04-23 13:32:00,
2013-04-23 08:22:00,26.0,16.0,-100.00,SW,225,11.0,14.0,65,-99.99,,,-99.99,,2013-04-23 14:22:00,
2013-04-23 08:32:00,26.0,16.0,-100.00,SW,225,11.0,14.0,65,-99.99,,,-99.99,,2013-04-23 14:32:00,
2013-04-23 08:42:00,26.0,16.0,-100.00,SW,225,11.0,14.0,65,-99.99,,,-99.99,,2013-04-23 14:42:00,
2013-04-23 08:52:00,26.0,16.0,-100.00,SW,225,11.0,14.0,65,-99.99,,,-99.99,,2013-04-23 14:52:00,
2013-04-23 10:03:00,27.0,16.0,-100.00,SW,215,9.0,16.0,63,-99.99,,,-99.99,,2013-04-23 16:03:00,
2013-04-23 10:12:00,27.0,16.0,-100.00,SW,215,9.0,16.0,63,-99.99,,,-99.99,,2013-04-23 16:12:00,
2013-04-23 10:23:00,27.0,16.0,-100.00,SW,215,9.0,16.0,63,-99.99,,,-99.99,,2013-04-23 16:23:00,
2013-04-23 10:34:00,27.0,16.0,-100.00,SW,215,9.0,16.0,63,-99.99,,,-99.99,,2013-04-23 16:34:00,
2013-04-23 10:43:00,27.0,15.0,-100.00,SSW,205,12.0,17.0,60,-99.99,,,-99.99,,2013-04-23 16:43:00,
2013-04-23 10:53:00,28.0,15.0,-100.00,SSW,200,10.0,13.0,60,-99.99,,,-99.99,,2013-04-23 16:53:00,
2013-04-23 11:02:00,28.0,16.0,-100.00,SSW,205,11.0,17.0,60,-99.99,,,-99.99,,2013-04-23 17:02:00,
2013-04-23 11:11:00,28.0,16.0,-100.00,SSW,205,11.0,17.0,60,-99.99,,,-99.99,,2013-04-23 17:11:00,
2013-04-23 11:22:00,28.0,16.0,-100.00,SSW,195,9.0,12.0,58,-99.99,,,-99.99,,2013-04-23 17:22:00,
2013-04-23 11:32:00,28.0,16.0,-100.00,SSW,195,9.0,12.0,58,-99.99,,,-99.99,,2013-04-23 17:32:00,
2013-04-23 11:42:00,28.0,16.0,-100.00,SSW,195,9.0,12.0,58,-99.99,,,-99.99,,2013-04-23 17:42:00,
2013-04-23 11:53:00,28.0,16.0,-100.00,SSW,195,9.0,12.0,58,-99.99,,,-99.99,,2013-04-23 17:53:00,
2013-04-23 12:02:00,30.0,15.0,-100.00,South,175,10.0,13.0,53,-99.99,,,-99.99,,2013-04-23 18:02:00,
2013-04-23 12:12:00,30.0,15.0,-100.00,South,175,10.0,13.0,53,-99.99,,,-99.99,,2013-04-23 18:12:00,
2013-04-23 12:22:00,30.0,15.0,-100.00,South,175,10.0,13.0,53,-99.99,,,-99.99,,2013-04-23 18:22:00,
2013-04-23 12:32:00,30.0,15.0,-100.00,South,175,10.0,13.0,53,-99.99,,,-99.99,,2013-04-23 18:32:00,
2013-04-23 13:11:00,34.0,18.0,-100.00,SSE,160,9.0,15.0,50,-99.99,,,-99.99,,2013-04-23 19:11:00,
2013-04-23 13:22:00,34.0,18.0,-100.00,SSE,160,9.0,15.0,50,-99.99,,,-99.99,,2013-04-23 19:22:00,
2013-04-23 13:32:00,34.0,18.0,-100.00,SSE,160,9.0,15.0,50,-99.99,,,-99.99,,2013-04-23 19:32:00,
2013-04-23 13:42:00,34.0,18.0,-100.00,SSE,160,9.0,15.0,50,-99.99,,,-99.99,,2013-04-23 19:42:00,
2013-04-23 15:52:00,37.0,15.0,-100.00,SE,125,8.0,11.0,40,-99.99,,,-99.99,,2013-04-23 21:52:00,
2013-04-23 16:03:00,37.0,15.0,-100.00,SE,125,8.0,11.0,40,-99.99,,,-99.99,,2013-04-23 22:03:00,
2013-04-23 16:12:00,37.0,16.0,-100.00,SE,130,10.0,17.0,42,-99.99,,,-99.99,,2013-04-23 22:12:00,
2013-04-23 16:22:00,37.0,16.0,-100.00,SE,130,10.0,17.0,42,-99.99,,,-99.99,,2013-04-23 22:22:00,
2013-04-23 16:33:00,37.0,16.0,-100.00,SE,130,6.0,11.0,41,-99.99,,,-99.99,,2013-04-23 22:33:00,
2013-04-23 16:42:00,37.0,16.0,-100.00,SE,130,6.0,11.0,41,-99.99,,,-99.99,,2013-04-23 22:42:00,
2013-04-23 16:52:00,37.0,16.0,-100.00,SE,130,6.0,11.0,41,-99.99,,,-99.99,,2013-04-23 22:52:00,
2013-04-23 17:03:00,37.0,16.0,-100.00,SE,130,6.0,11.0,41,-99.99,,,-99.99,,2013-04-23 23:03:00,
2013-04-23 18:42:00,39.0,16.0,-100.00,ESE,110,4.0,6.0,37,-99.99,,,-99.99,,2013-04-24 00:42:00,
2013-04-23 18:52:00,39.0,16.0,-100.00,ESE,110,4.0,6.0,37,-99.99,,,-99.99,,2013-04-24 00:52:00,
2013-04-23 19:01:00,39.0,16.0,-100.00,ESE,110,4.0,6.0,37,-99.99,,,-99.99,,2013-04-24 01:01:00,
2013-04-23 19:11:00,39.0,16.0,-100.00,ESE,110,4.0,6.0,37,-99.99,,,-99.99,,2013-04-24 01:11:00,
2013-04-23 20:15:00,33.0,23.0,-100.00,SW,230,11.0,16.0,67,-99.99,,,-99.99,,2013-04-24 02:15:00,
2013-04-23 20:50:00,33.0,23.0,-100.00,SW,230,11.0,16.0,67,-99.99,,,-99.99,,2013-04-24 02:50:00,
2013-04-23 21:00:00,33.0,23.0,-100.00,SW,230,11.0,16.0,67,-99.99,,,-99.99,,2013-04-24 03:00:00,
2013-04-23 21:09:00,33.0,23.0,-100.00,SW,230,11.0,16.0,67,-99.99,,,-99.99,,2013-04-24 03:09:00,
2013-04-23 21:29:00,30.0,24.0,-100.00,West,260,11.0,16.0,75,-99.99,,,-99.99,,2013-04-24 03:29:00,
2013-04-23 21:40:00,30.0,23.0,-100.00,West,265,11.0,15.0,76,-99.99,,,-99.99,,2013-04-24 03:40:00,
2013-04-23 21:50:00,30.0,23.0,-100.00,West,265,11.0,15.0,76,-99.99,,,-99.99,,2013-04-24 03:50:00,
2013-04-23 21:56:00,29.0,24.0,-100.00,West,280,11.0,14.0,79,-99.99,,,-99.99,,2013-04-24 03:56:00,
2013-04-23 22:03:00,29.0,24.0,-100.00,West,280,11.0,14.0,79,-99.99,,,-99.99,,2013-04-24 04:03:00,
2013-04-23 22:12:00,29.0,24.0,-100.00,West,280,11.0,14.0,79,-99.99,,,-99.99,,2013-04-24 04:12:00,
2013-04-23 22:23:00,29.0,24.0,-100.00,West,280,11.0,14.0,79,-99.99,,,-99.99,,2013-04-24 04:23:00,
2013-04-23 22:43:00,29.0,23.0,-100.00,West,280,12.0,17.0,80,-99.99,,,-99.99,,2013-04-24 04:43:00,
2013-04-23 22:53:00,29.0,23.0,-100.00,West,280,12.0,17.0,80,-99.99,,,-99.99,,2013-04-24 04:53:00,
2013-04-23 23:02:00,29.0,23.0,-100.00,West,280,12.0,17.0,80,-99.99,,,-99.99,,2013-04-24 05:02:00,
2013-04-23 23:12:00,29.0,23.0,-100.00,West,280,12.0,17.0,80,-99.99,,,-99.99,,2013-04-24 05:12:00,
2013-04-23 23:22:00,28.0,22.0,-100.00,West,275,10.0,15.0,78,-99.99,,,-99.99,,2013-04-24 05:22:00,
2013-04-23 23:32:00,27.0,22.0,-100.00,West,280,9.0,13.0,79,-99.99,,,-99.99,,2013-04-24 05:32:00,
2013-04-23 23:42:00,27.0,22.0,-100.00,West,280,9.0,13.0,79,-99.99,,,-99.99,,2013-04-24 05:42:00,
2013-04-23 23:52:00,27.0,22.0,-100.00,West,280,9.0,13.0,79,-99.99,,,-99.99,,2013-04-24 05:52:00,